THOR BURNER 2 R/B

基本信息
目录编号:
4513
目录名称:
THOR BURNER 2 R/B
国际标识:
1970-070B
轨道中心:
EARTH
物体状态:
在轨
发射日期:
1970-09-03 UTC
国别:
美国 (US)
轨道信息
数据来源: 国际轨道数据
星历时间: 2026-09-11T00:09:42+0800
半长轴: 7153.734km
偏心率: 0.0065373
轨道倾角: 98.979°
近地点辐角: 340.109°
升交点赤经: 228.327°
平近点角: 19.755°
近地点: 728.83km
远地点: 822.364km
周期: 100.360分钟
每日圈数: 14.348406
详细信息
发射场:
AFWTR
轨道高度:
LEO
数据来源:
AOE Integration Group
参考系:
TEME
时间系统:
UTC
历元类型:
SGP4
2D轨道图
3D轨道图
轨道高度分析图
轨道倾角分析图
轨道综合分析图
查看轨道综合分析图